TimeEDT,TemperatureF,Dew PointF,Humidity,Sea Level PressureIn,VisibilityMPH,Wind Direction,Wind SpeedMPH,Gust SpeedMPH,PrecipitationIn,Events,Conditions,WindDirDegrees,DateUTC
12:53 AM,26.1,19.0,75,29.96,2.5,WSW,11.5,-,0.00,Snow,Light Snow,240,2013-03-15 04:53:00
1:26 AM,26.6,23.0,86,29.88,1.5,WSW,10.4,-,0.00,Snow,Light Snow,240,2013-03-15 05:26:00
1:44 AM,26.6,24.8,93,29.87,1.0,SW,10.4,-,0.00,Snow,Light Snow,230,2013-03-15 05:44:00
1:53 AM,26.1,24.1,92,29.92,1.2,SW,10.4,-,0.00,Snow,Light Snow,230,2013-03-15 05:53:00
2:14 AM,26.6,24.8,93,29.86,2.0,WSW,12.7,19.6,0.00,Snow,Light Snow,250,2013-03-15 06:14:00
2:24 AM,26.6,26.6,100,29.86,1.0,WSW,13.8,-,0.01,Snow,Light Snow,250,2013-03-15 06:24:00
2:44 AM,28.4,26.6,93,29.85,1.5,WSW,15.0,-,0.01,Snow,Light Snow,250,2013-03-15 06:44:00
2:53 AM,28.0,27.0,96,29.90,0.8,WSW,15.0,-,0.01,Snow,Light Snow,250,2013-03-15 06:53:00
3:10 AM,28.4,26.6,93,29.84,1.2,WSW,15.0,-,0.00,Snow,Light Snow,250,2013-03-15 07:10:00
3:53 AM,28.9,27.0,92,29.88,1.5,West,11.5,-,0.00,Snow,Light Snow,260,2013-03-15 07:53:00
4:13 AM,28.4,26.6,93,29.81,2.5,West,11.5,20.7,0.00,Snow,Light Snow,260,2013-03-15 08:13:00
4:53 AM,30.0,28.0,92,29.85,2.5,West,12.7,21.9,0.00,Snow,Light Snow,270,2013-03-15 08:53:00
5:05 AM,30.2,28.4,93,29.80,1.8,West,13.8,20.7,0.00,Snow,Light Snow,270,2013-03-15 09:05:00
5:17 AM,30.2,28.4,93,29.80,2.0,West,12.7,21.9,0.00,Snow,Light Snow,270,2013-03-15 09:17:00
5:42 AM,30.2,28.4,93,29.79,4.0,West,8.1,17.3,0.00,Snow,Light Snow,270,2013-03-15 09:42:00
5:53 AM,30.0,28.0,92,29.84,6.0,West,10.4,18.4,0.00,,Overcast,270,2013-03-15 09:53:00
6:53 AM,30.0,28.0,92,29.84,6.0,WNW,5.8,-,N/A,,Overcast,290,2013-03-15 10:53:00
7:53 AM,30.0,28.0,92,29.85,9.0,Variable,6.9,17.3,0.01,,Overcast,0,2013-03-15 11:53:00
8:53 AM,28.9,26.1,89,29.87,9.0,Variable,5.8,21.9,N/A,,Overcast,0,2013-03-15 12:53:00
9:25 AM,28.4,24.8,86,29.83,10.0,NW,8.1,-,N/A,,Overcast,320,2013-03-15 13:25:00
9:53 AM,28.0,21.9,78,29.89,10.0,NW,9.2,-,N/A,,Overcast,320,2013-03-15 13:53:00
10:09 AM,28.4,21.2,74,29.84,10.0,NNW,9.2,23.0,N/A,,Overcast,330,2013-03-15 14:09:00
10:36 AM,28.4,17.6,64,29.84,10.0,NW,11.5,21.9,0.00,,Scattered Clouds,320,2013-03-15 14:36:00
10:53 AM,28.0,18.0,66,29.90,10.0,NNW,10.4,18.4,0.00,,Scattered Clouds,330,2013-03-15 14:53:00
11:17 AM,26.6,17.6,69,29.85,10.0,NW,9.2,17.3,N/A,,Mostly Cloudy,310,2013-03-15 15:17:00
11:30 AM,28.4,17.6,64,29.84,10.0,NNW,12.7,21.9,N/A,,Scattered Clouds,330,2013-03-15 15:30:00
11:53 AM,28.9,17.1,61,29.90,10.0,NW,10.4,18.4,0.00,,Scattered Clouds,320,2013-03-15 15:53:00
12:34 PM,28.4,15.8,59,29.84,10.0,NW,11.5,18.4,0.00,,Mostly Cloudy,320,2013-03-15 16:34:00
12:53 PM,28.0,15.1,58,29.90,10.0,NW,11.5,21.9,0.00,,Mostly Cloudy,320,2013-03-15 16:53:00
1:00 PM,28.4,15.8,59,29.85,10.0,NW,9.2,-,N/A,,Scattered Clouds,320,2013-03-15 17:00:00
1:08 PM,28.4,17.6,64,29.85,10.0,WNW,11.5,21.9,N/A,,Mostly Cloudy,300,2013-03-15 17:08:00
1:53 PM,28.9,16.0,58,29.90,10.0,NNW,9.2,19.6,0.00,,Mostly Cloudy,330,2013-03-15 17:53:00
2:24 PM,28.4,17.6,64,29.85,10.0,NW,9.2,17.3,N/A,,Mostly Cloudy,320,2013-03-15 18:24:00
2:53 PM,30.0,17.1,59,29.90,10.0,NW,11.5,18.4,N/A,,Mostly Cloudy,310,2013-03-15 18:53:00
3:10 PM,28.4,17.6,64,29.84,10.0,NW,6.9,19.6,N/A,,Mostly Cloudy,310,2013-03-15 19:10:00
3:53 PM,28.9,15.1,56,29.90,10.0,NNW,9.2,20.7,N/A,,Scattered Clouds,330,2013-03-15 19:53:00
4:35 PM,28.4,15.8,59,29.86,10.0,NW,8.1,-,N/A,,Mostly Cloudy,310,2013-03-15 20:35:00
4:50 PM,28.4,14.0,55,29.86,10.0,West,8.1,-,N/A,,Scattered Clouds,280,2013-03-15 20:50:00
4:53 PM,28.0,15.1,58,29.91,10.0,NW,6.9,-,N/A,,Scattered Clouds,310,2013-03-15 20:53:00
5:53 PM,26.1,12.0,55,29.92,10.0,NW,9.2,-,N/A,,Mostly Cloudy,310,2013-03-15 21:53:00
6:53 PM,25.0,12.9,60,29.91,10.0,Variable,5.8,-,N/A,,Mostly Cloudy,0,2013-03-15 22:53:00
7:53 PM,23.0,12.0,63,29.93,10.0,NW,4.6,-,N/A,,Scattered Clouds,310,2013-03-15 23:53:00
8:53 PM,23.0,12.0,63,29.94,10.0,Variable,4.6,-,N/A,,Overcast,0,2013-03-16 00:53:00
9:53 PM,21.9,10.0,60,29.95,10.0,Calm,Calm,-,N/A,,Overcast,0,2013-03-16 01:53:00
10:53 PM,21.0,10.9,65,29.94,10.0,North,3.5,-,N/A,,Overcast,350,2013-03-16 02:53:00
11:53 PM,19.9,9.0,62,29.94,10.0,NNE,4.6,-,N/A,,Overcast,20,2013-03-16 03:53:00